Time,TemperatureF,DewpointF,PressureIn,WindDirection,WindDirectionDegrees,WindSpeedMPH,WindSpeedGustMPH,Humidity,HourlyPrecipIn,Conditions,Clouds,dailyrainin,SolarRadiationWatts/m^2,SoftwareType,DateUTC
2013-03-30 00:12:00,41.0,38.0,-100.00,North,7,8.0,26.0,89,0.00,,,0.00,0.000000,,2013-03-30 06:12:00,
2013-03-30 00:23:00,41.0,38.0,-100.00,North,7,8.0,26.0,89,0.00,,,0.00,0.000000,,2013-03-30 06:23:00,
2013-03-30 00:32:00,41.0,38.0,-100.00,North,7,8.0,26.0,89,0.00,,,0.00,0.000000,,2013-03-30 06:32:00,
2013-03-30 00:42:00,41.0,38.0,-100.00,North,7,8.0,26.0,89,0.00,,,0.00,0.000000,,2013-03-30 06:42:00,
2013-03-30 00:51:00,41.0,38.0,-100.00,SSW,200,3.0,9.0,90,0.00,,,0.00,0.000000,,2013-03-30 06:51:00,
2013-03-30 01:12:00,41.0,38.0,-100.00,SSW,200,3.0,9.0,90,0.00,,,0.00,0.000000,,2013-03-30 07:12:00,
2013-03-30 01:22:00,41.0,38.0,-100.00,SSW,200,3.0,9.0,90,0.00,,,0.00,0.000000,,2013-03-30 07:22:00,
2013-03-30 01:32:00,41.0,38.0,-100.00,SSW,200,3.0,9.0,90,0.00,,,0.00,0.000000,,2013-03-30 07:32:00,
2013-03-30 01:42:00,41.0,38.0,-100.00,SSW,200,3.0,9.0,90,0.00,,,0.00,0.000000,,2013-03-30 07:42:00,
2013-03-30 01:51:00,40.0,37.0,-100.00,SE,136,2.0,4.0,90,0.00,,,0.00,0.000000,,2013-03-30 07:51:00,
2013-03-30 02:12:00,40.0,37.0,-100.00,SE,136,2.0,4.0,90,0.00,,,0.00,0.000000,,2013-03-30 08:12:00,
2013-03-30 02:22:00,40.0,37.0,-100.00,SE,136,2.0,4.0,90,0.00,,,0.00,0.000000,,2013-03-30 08:22:00,
2013-03-30 02:32:00,40.0,37.0,-100.00,SE,136,2.0,4.0,90,0.00,,,0.00,0.000000,,2013-03-30 08:32:00,
2013-03-30 02:42:00,40.0,37.0,-100.00,SE,136,2.0,4.0,90,0.00,,,0.00,0.000000,,2013-03-30 08:42:00,
2013-03-30 02:51:00,40.0,38.0,-100.00,WNW,302,3.0,5.0,91,0.00,,,0.00,0.000000,,2013-03-30 08:51:00,
2013-03-30 03:22:00,40.0,38.0,-100.00,WNW,302,3.0,5.0,91,0.00,,,0.00,0.000000,,2013-03-30 09:22:00,
2013-03-30 03:43:00,40.0,38.0,-100.00,WNW,302,3.0,5.0,91,0.00,,,0.00,0.000000,,2013-03-30 09:43:00,
2013-03-30 03:51:00,39.0,36.0,-100.00,SSW,197,1.0,4.0,90,0.00,,,0.00,0.000000,,2013-03-30 09:51:00,
2013-03-30 04:13:00,39.0,36.0,-100.00,SSW,197,1.0,4.0,90,0.00,,,0.00,0.000000,,2013-03-30 10:13:00,
2013-03-30 04:23:00,39.0,36.0,-100.00,SSW,197,1.0,4.0,90,0.00,,,0.00,0.000000,,2013-03-30 10:23:00,
2013-03-30 04:33:00,39.0,36.0,-100.00,SSW,197,1.0,4.0,90,0.00,,,0.00,0.000000,,2013-03-30 10:33:00,
2013-03-30 04:42:00,39.0,36.0,-100.00,SSW,197,1.0,4.0,90,0.00,,,0.00,0.000000,,2013-03-30 10:42:00,
2013-03-30 04:51:00,39.0,36.0,-100.00,North,357,4.0,5.0,90,0.00,,,0.00,0.000000,,2013-03-30 10:51:00,
2013-03-30 05:12:00,39.0,36.0,-100.00,North,357,4.0,5.0,90,0.00,,,0.00,0.000000,,2013-03-30 11:12:00,
2013-03-30 05:22:00,39.0,36.0,-100.00,North,357,4.0,5.0,90,0.00,,,0.00,0.000000,,2013-03-30 11:22:00,
2013-03-30 05:33:00,39.0,36.0,-100.00,North,357,4.0,5.0,90,0.00,,,0.00,0.000000,,2013-03-30 11:33:00,
2013-03-30 05:42:00,39.0,36.0,-100.00,North,357,4.0,5.0,90,0.00,,,0.00,0.000000,,2013-03-30 11:42:00,
2013-03-30 05:51:00,40.0,37.0,-100.00,WSW,249,1.0,6.0,90,0.00,,,0.00,0.000000,,2013-03-30 11:51:00,
2013-03-30 06:22:00,40.0,37.0,-100.00,WSW,249,1.0,6.0,90,0.00,,,0.00,0.000000,,2013-03-30 12:22:00,
2013-03-30 06:32:00,40.0,37.0,-100.00,WSW,249,1.0,6.0,90,0.00,,,0.00,0.000000,,2013-03-30 12:32:00,
2013-03-30 06:42:00,40.0,37.0,-100.00,WSW,249,1.0,6.0,90,0.00,,,0.00,0.000000,,2013-03-30 12:42:00,
2013-03-30 06:51:00,38.0,36.0,-100.00,South,182,2.0,6.0,93,0.00,,,0.00,0.000000,,2013-03-30 12:51:00,
2013-03-30 07:12:00,38.0,36.0,-100.00,South,182,2.0,6.0,93,0.00,,,0.00,0.000000,,2013-03-30 13:12:00,
2013-03-30 07:22:00,38.0,36.0,-100.00,South,182,2.0,6.0,93,0.00,,,0.00,0.000000,,2013-03-30 13:22:00,
2013-03-30 07:32:00,38.0,36.0,-100.00,South,182,2.0,6.0,93,0.00,,,0.00,0.000000,,2013-03-30 13:32:00,
2013-03-30 07:42:00,38.0,36.0,-100.00,South,182,2.0,6.0,93,0.00,,,0.00,0.000000,,2013-03-30 13:42:00,
2013-03-30 07:51:00,40.0,38.0,-100.00,SSW,195,0.0,5.0,91,0.00,,,0.00,23.000000,,2013-03-30 13:51:00,
2013-03-30 08:23:00,40.0,38.0,-100.00,SSW,195,0.0,5.0,91,0.00,,,0.00,23.000000,,2013-03-30 14:23:00,
2013-03-30 08:32:00,40.0,38.0,-100.00,SSW,195,0.0,5.0,91,0.00,,,0.00,23.000000,,2013-03-30 14:32:00,
2013-03-30 08:42:00,40.0,38.0,-100.00,SSW,195,0.0,5.0,91,0.00,,,0.00,23.000000,,2013-03-30 14:42:00,
2013-03-30 08:51:00,41.0,38.0,-100.00,SSW,195,2.0,6.0,88,0.00,,,0.00,88.000000,,2013-03-30 14:51:00,
2013-03-30 09:12:00,41.0,38.0,-100.00,SSW,195,2.0,6.0,88,0.00,,,0.00,88.000000,,2013-03-30 15:12:00,
2013-03-30 09:22:00,41.0,38.0,-100.00,SSW,195,2.0,6.0,88,0.00,,,0.00,88.000000,,2013-03-30 15:22:00,
2013-03-30 09:33:00,41.0,38.0,-100.00,SSW,195,2.0,6.0,88,0.00,,,0.00,88.000000,,2013-03-30 15:33:00,
2013-03-30 09:43:00,41.0,38.0,-100.00,SSW,195,2.0,6.0,88,0.00,,,0.00,88.000000,,2013-03-30 15:43:00,
2013-03-30 09:51:00,45.0,39.0,-100.00,NW,305,8.0,16.0,78,0.00,,,0.00,233.000000,,2013-03-30 15:51:00,
2013-03-30 10:13:00,45.0,39.0,-100.00,NW,305,8.0,16.0,78,0.00,,,0.00,233.000000,,2013-03-30 16:13:00,
2013-03-30 10:23:00,45.0,39.0,-100.00,NW,305,8.0,16.0,78,0.00,,,0.00,233.000000,,2013-03-30 16:23:00,
2013-03-30 10:33:00,45.0,39.0,-100.00,NW,305,8.0,16.0,78,0.00,,,0.00,233.000000,,2013-03-30 16:33:00,
2013-03-30 10:43:00,45.0,39.0,-100.00,NW,305,8.0,16.0,78,0.00,,,0.00,233.000000,,2013-03-30 16:43:00,
2013-03-30 10:51:00,45.0,36.0,-100.00,North,349,9.0,19.0,70,0.00,,,0.00,356.000000,,2013-03-30 16:51:00,
2013-03-30 11:23:00,45.0,36.0,-100.00,North,349,9.0,19.0,70,0.00,,,0.00,356.000000,,2013-03-30 17:23:00,
2013-03-30 11:32:00,45.0,36.0,-100.00,North,349,9.0,19.0,70,0.00,,,0.00,356.000000,,2013-03-30 17:32:00,
2013-03-30 11:42:00,45.0,36.0,-100.00,North,349,9.0,19.0,70,0.00,,,0.00,356.000000,,2013-03-30 17:42:00,
2013-03-30 11:51:00,48.0,34.0,-100.00,NW,324,12.0,23.0,58,0.00,,,0.00,480.000000,,2013-03-30 17:51:00,
2013-03-30 12:22:00,48.0,34.0,-100.00,NW,324,12.0,23.0,58,0.00,,,0.00,480.000000,,2013-03-30 18:22:00,
2013-03-30 12:32:00,48.0,34.0,-100.00,NW,324,12.0,23.0,58,0.00,,,0.00,480.000000,,2013-03-30 18:32:00,
2013-03-30 12:42:00,48.0,34.0,-100.00,NW,324,12.0,23.0,58,0.00,,,0.00,480.000000,,2013-03-30 18:42:00,
2013-03-30 12:51:00,51.0,31.0,-100.00,NW,321,16.0,30.0,46,0.00,,,0.00,702.000000,,2013-03-30 18:51:00,
2013-03-30 13:13:00,51.0,31.0,-100.00,NW,321,16.0,30.0,46,0.00,,,0.00,702.000000,,2013-03-30 19:13:00,
2013-03-30 13:22:00,51.0,31.0,-100.00,NW,321,16.0,30.0,46,0.00,,,0.00,702.000000,,2013-03-30 19:22:00,
2013-03-30 13:32:00,51.0,31.0,-100.00,NW,321,16.0,30.0,46,0.00,,,0.00,702.000000,,2013-03-30 19:32:00,
2013-03-30 13:42:00,51.0,31.0,-100.00,NW,321,16.0,30.0,46,0.00,,,0.00,702.000000,,2013-03-30 19:42:00,
2013-03-30 13:51:00,50.0,26.0,-100.00,North,353,25.0,39.0,39,0.00,,,0.00,614.000000,,2013-03-30 19:51:00,
2013-03-30 14:22:00,50.0,26.0,-100.00,North,353,25.0,39.0,39,0.00,,,0.00,614.000000,,2013-03-30 20:22:00,
2013-03-30 14:32:00,50.0,26.0,-100.00,North,353,25.0,39.0,39,0.00,,,0.00,614.000000,,2013-03-30 20:32:00,
2013-03-30 14:42:00,50.0,26.0,-100.00,North,353,25.0,39.0,39,0.00,,,0.00,614.000000,,2013-03-30 20:42:00,
2013-03-30 14:51:00,49.0,26.0,-100.00,NW,326,29.0,44.0,40,0.00,,,0.00,548.000000,,2013-03-30 20:51:00,
2013-03-30 15:12:00,49.0,26.0,-100.00,NW,326,29.0,44.0,40,0.00,,,0.00,548.000000,,2013-03-30 21:12:00,
2013-03-30 15:22:00,49.0,26.0,-100.00,NW,326,29.0,44.0,40,0.00,,,0.00,548.000000,,2013-03-30 21:22:00,
2013-03-30 15:34:00,49.0,26.0,-100.00,NW,326,29.0,44.0,40,0.00,,,0.00,548.000000,,2013-03-30 21:34:00,
2013-03-30 15:43:00,49.0,26.0,-100.00,NW,326,29.0,44.0,40,0.00,,,0.00,548.000000,,2013-03-30 21:43:00,
2013-03-30 15:51:00,50.0,25.0,-100.00,NNW,327,27.0,44.0,38,0.00,,,0.00,625.000000,,2013-03-30 21:51:00,
2013-03-30 16:13:00,50.0,25.0,-100.00,NNW,327,27.0,44.0,38,0.00,,,0.00,625.000000,,2013-03-30 22:13:00,
2013-03-30 16:23:00,50.0,25.0,-100.00,NNW,327,27.0,44.0,38,0.00,,,0.00,625.000000,,2013-03-30 22:23:00,
2013-03-30 16:33:00,50.0,25.0,-100.00,NNW,327,27.0,44.0,38,0.00,,,0.00,625.000000,,2013-03-30 22:33:00,
2013-03-30 16:43:00,50.0,25.0,-100.00,NNW,327,27.0,44.0,38,0.00,,,0.00,625.000000,,2013-03-30 22:43:00,
2013-03-30 16:51:00,51.0,29.0,-100.00,North,357,23.0,45.0,43,0.00,,,0.00,430.000000,,2013-03-30 22:51:00,
2013-03-30 17:12:00,51.0,29.0,-100.00,North,357,23.0,45.0,43,0.00,,,0.00,430.000000,,2013-03-30 23:12:00,
2013-03-30 17:22:00,51.0,29.0,-100.00,North,357,23.0,45.0,43,0.00,,,0.00,430.000000,,2013-03-30 23:22:00,
2013-03-30 17:33:00,51.0,29.0,-100.00,North,357,23.0,45.0,43,0.00,,,0.00,430.000000,,2013-03-30 23:33:00,
2013-03-30 17:42:00,51.0,29.0,-100.00,North,357,23.0,45.0,43,0.00,,,0.00,430.000000,,2013-03-30 23:42:00,
2013-03-30 17:51:00,51.0,21.0,-100.00,NNW,331,20.0,38.0,31,0.00,,,0.00,300.000000,,2013-03-30 23:51:00,
2013-03-30 18:12:00,51.0,21.0,-100.00,NNW,331,20.0,38.0,31,0.00,,,0.00,300.000000,,2013-03-31 00:12:00,
2013-03-30 18:22:00,51.0,21.0,-100.00,NNW,331,20.0,38.0,31,0.00,,,0.00,300.000000,,2013-03-31 00:22:00,
2013-03-30 18:32:00,51.0,21.0,-100.00,NNW,331,20.0,38.0,31,0.00,,,0.00,300.000000,,2013-03-31 00:32:00,
2013-03-30 18:42:00,51.0,21.0,-100.00,NNW,331,20.0,38.0,31,0.00,,,0.00,300.000000,,2013-03-31 00:42:00,
2013-03-30 18:51:00,49.0,22.0,-100.00,NNW,340,17.0,32.0,34,0.00,,,0.00,64.000000,,2013-03-31 00:51:00,
2013-03-30 19:22:00,49.0,22.0,-100.00,NNW,340,17.0,32.0,34,0.00,,,0.00,64.000000,,2013-03-31 01:22:00,
2013-03-30 19:32:00,49.0,22.0,-100.00,NNW,340,17.0,32.0,34,0.00,,,0.00,64.000000,,2013-03-31 01:32:00,
2013-03-30 19:42:00,49.0,22.0,-100.00,NNW,340,17.0,32.0,34,0.00,,,0.00,64.000000,,2013-03-31 01:42:00,
2013-03-30 19:51:00,45.0,22.0,-100.00,North,353,10.0,23.0,40,0.00,,,0.00,11.000000,,2013-03-31 01:51:00,
2013-03-30 20:13:00,45.0,22.0,-100.00,North,353,10.0,23.0,40,0.00,,,0.00,11.000000,,2013-03-31 02:13:00,
2013-03-30 20:22:00,45.0,22.0,-100.00,North,353,10.0,23.0,40,0.00,,,0.00,11.000000,,2013-03-31 02:22:00,
2013-03-30 20:32:00,45.0,22.0,-100.00,North,353,10.0,23.0,40,0.00,,,0.00,11.000000,,2013-03-31 02:32:00,
2013-03-30 20:43:00,45.0,22.0,-100.00,North,353,10.0,23.0,40,0.00,,,0.00,11.000000,,2013-03-31 02:43:00,
2013-03-30 20:51:00,44.0,25.0,-100.00,North,10,3.0,13.0,47,0.00,,,0.00,0.000000,,2013-03-31 02:51:00,
2013-03-30 21:12:00,44.0,25.0,-100.00,North,10,3.0,13.0,47,0.00,,,0.00,0.000000,,2013-03-31 03:12:00,
2013-03-30 21:22:00,44.0,25.0,-100.00,North,10,3.0,13.0,47,0.00,,,0.00,0.000000,,2013-03-31 03:22:00,
2013-03-30 21:33:00,44.0,25.0,-100.00,North,10,3.0,13.0,47,0.00,,,0.00,0.000000,,2013-03-31 03:33:00,
2013-03-30 21:43:00,44.0,25.0,-100.00,North,10,3.0,13.0,47,0.00,,,0.00,0.000000,,2013-03-31 03:43:00,
2013-03-30 21:51:00,40.0,25.0,-100.00,ENE,67,7.0,10.0,54,0.00,,,0.00,0.000000,,2013-03-31 03:51:00,
2013-03-30 22:23:00,40.0,25.0,-100.00,ENE,67,7.0,10.0,54,0.00,,,0.00,0.000000,,2013-03-31 04:23:00,
2013-03-30 22:32:00,40.0,25.0,-100.00,ENE,67,7.0,10.0,54,0.00,,,0.00,0.000000,,2013-03-31 04:32:00,
2013-03-30 22:42:00,40.0,25.0,-100.00,ENE,67,7.0,10.0,54,0.00,,,0.00,0.000000,,2013-03-31 04:42:00,
2013-03-30 22:51:00,37.0,27.0,-100.00,ESE,104,5.0,13.0,67,0.00,,,0.00,0.000000,,2013-03-31 04:51:00,
2013-03-30 23:12:00,37.0,27.0,-100.00,ESE,104,5.0,13.0,67,0.00,,,0.00,0.000000,,2013-03-31 05:12:00,
2013-03-30 23:22:00,37.0,27.0,-100.00,ESE,104,5.0,13.0,67,0.00,,,0.00,0.000000,,2013-03-31 05:22:00,
2013-03-30 23:32:00,37.0,27.0,-100.00,ESE,104,5.0,13.0,67,0.00,,,0.00,0.000000,,2013-03-31 05:32:00,
2013-03-30 23:42:00,37.0,27.0,-100.00,ESE,104,5.0,13.0,67,0.00,,,0.00,0.000000,,2013-03-31 05:42:00,
2013-03-30 23:51:00,35.0,26.0,-100.00,SSE,163,5.0,10.0,68,0.00,,,0.00,0.000000,,2013-03-31 05:51:00,